Language: 


Des rapports , des résumés tant et plus, au choix de chacun....


Données statistiques de la station
Quotidien Rapport Février 2, 2018 Unités:  Anglais    Métrique   les deux
« Précédent Jour
Suivant Jour »
Quotidien Hebdomadaire Mensuel Annuel Actuel
  Haut: Bas: Moyen:
Température: TemperatureC °F 1.8 °F 4 °F
Pt de rosée: DewpointC °F 2.0 °F 3.9 °F
Humidité: Humidity % 87 % 97 %
Vitesse du vent: WindSpeedKMH mph 0.0 mph 6.3 mph
Rafales: WindSpeedGustKMH mph - -
Vent:- - West
Pression: PressurehPa in 1002.9 in -
Précipitation: 13.7 in    
Historical Graphs
 
 
Données statistiques pour Février 2, 2018
Heure Température Point de rosée Pression Vent Vitesse du vent Refales Humidité Pluie (taux horaire)
TemperatureC °F DewpointC °F PressurehPa in Calm     Humidity % HourlyPrecipMM in
00:00 3.3 °F 3.0 °F 1002.9 in West 6.1 mph 14.0 mph 98 % 1.0 in
00:05 3.3 °F 3.0 °F 1002.9 in SW 15.4 mph 15.4 mph 98 % 1.3 in
00:10 3.3 °F 3.0 °F 1002.9 in West 6.4 mph 15.4 mph 98 % 1.0 in
00:16 3.3 °F 3.0 °F 1002.9 in West 10.8 mph 14.0 mph 98 % 1.3 in
00:21 3.3 °F 3.0 °F 1002.9 in West 10.5 mph 16.3 mph 98 % 1.5 in
00:26 3.3 °F 3.0 °F 1002.9 in West 9.0 mph 16.3 mph 98 % 1.5 in
00:31 3.4 °F 3.0 °F 1002.9 in WSW 7.6 mph 13.7 mph 98 % 1.5 in
00:36 3.4 °F 3.0 °F 1002.9 in WSW 14.0 mph 14.0 mph 98 % 1.8 in
00:41 3.4 °F 3.0 °F 1002.9 in West 10.5 mph 14.0 mph 98 % 1.8 in
00:46 3.4 °F 3.0 °F 1003.9 in WSW 10.1 mph 13.7 mph 98 % 1.5 in
00:51 3.5 °F 4.0 °F 1003.9 in West 9.3 mph 12.6 mph 98 % 1.5 in
00:56 3.5 °F 4.0 °F 1003.9 in West 4.0 mph 13.0 mph 98 % 1.3 in
01:01 3.6 °F 4.0 °F 1002.9 in Calm   13.0 mph 98 % 1.3 in
01:06 3.6 °F 4.0 °F 1002.9 in Calm   10.5 mph 98 % 0.8 in
01:11 3.7 °F 4.0 °F 1002.9 in WSW 9.3 mph 10.1 mph 98 % 0.5 in
01:16 3.7 °F 4.0 °F 1002.9 in West 6.9 mph 9.3 mph 98 % 0.5 in
01:21 3.8 °F 4.0 °F 1002.9 in West 7.9 mph 9.7 mph 98 % 0.3 in
01:26 3.8 °F 4.0 °F 1002.9 in West 9.3 mph 10.1 mph 98 % 0.3 in
01:31 3.9 °F 4.0 °F 1003.9 in WNW 5.8 mph 10.1 mph 98 % 0.3 in
01:36 3.9 °F 4.0 °F 1003.9 in WNW 4.3 mph 7.6 mph 98 % 0.0 in
01:41 4.0 °F 4.0 °F 1003.9 in NE 5.5 mph 10.1 mph 98 % 0.0 in
01:46 4.1 °F 4.0 °F 1002.9 in West 4.0 mph 10.1 mph 98 % 0.0 in
01:51 4.3 °F 4.0 °F 1002.9 in North 5.8 mph 9.3 mph 98 % 0.0 in
01:56 4.3 °F 4.0 °F 1002.9 in WNW 4.7 mph 12.2 mph 98 % 0.0 in
02:01 4.4 °F 4.0 °F 1002.9 in West 3.2 mph 15.4 mph 98 % 0.0 in
02:06 4.4 °F 4.0 °F 1002.9 in WNW 5.0 mph 15.4 mph 98 % 0.0 in
02:12 4.5 °F 5.0 °F 1002.9 in NNE 3.5 mph 13.0 mph 98 % 0.0 in
02:17 4.5 °F 5.0 °F 1002.9 in North 9.0 mph 11.9 mph 98 % 0.0 in
02:22 4.5 °F 5.0 °F 1002.9 in West 5.5 mph 14.0 mph 98 % 0.0 in
02:27 4.4 °F 4.0 °F 1002.9 in WSW 2.6 mph 14.0 mph 98 % 0.0 in
02:32 4.4 °F 4.0 °F 1003.9 in WNW 2.1 mph 12.2 mph 98 % 0.0 in
02:37 4.3 °F 4.0 °F 1003.9 in West 6.1 mph 10.1 mph 98 % 0.0 in
02:42 4.2 °F 4.0 °F 1003.9 in West 5.5 mph 10.5 mph 98 % 0.0 in
02:47 4.1 °F 4.0 °F 1003.9 in Calm   10.5 mph 98 % 0.0 in
02:52 4.0 °F 4.0 °F 1003.9 in Calm   6.9 mph 98 % 0.0 in
02:57 3.8 °F 4.0 °F 1003.9 in West 7.6 mph 7.6 mph 98 % 0.0 in
03:02 3.7 °F 4.0 °F 1003.9 in WSW 3.2 mph 8.7 mph 98 % 0.0 in
03:07 3.7 °F 4.0 °F 1003.9 in NW 6.1 mph 10.1 mph 98 % 0.0 in
03:12 3.6 °F 4.0 °F 1003.9 in WSW 1.4 mph 10.1 mph 98 % 0.0 in
03:17 3.6 °F 4.0 °F 1003.9 in WSW 5.5 mph 9.3 mph 98 % 0.0 in
03:22 3.4 °F 3.0 °F 1003.9 in West 6.1 mph 9.3 mph 98 % 0.0 in
03:27 3.3 °F 3.0 °F 1003.9 in WSW 5.0 mph 9.7 mph 97 % 0.0 in
03:32 3.2 °F 3.0 °F 1002.9 in Calm   9.7 mph 97 % 0.0 in
03:37 3.0 °F 3.0 °F 1002.9 in West 10.1 mph 10.1 mph 97 % 0.0 in
03:42 3.0 °F 3.0 °F 1002.9 in WSW 7.9 mph 11.9 mph 97 % 0.0 in
03:47 3.0 °F 3.0 °F 1003.9 in WNW 5.8 mph 11.9 mph 97 % 0.0 in
03:52 2.9 °F 3.0 °F 1003.9 in West 9.7 mph 10.5 mph 98 % 0.0 in
03:57 3.0 °F 3.0 °F 1003.9 in West 6.9 mph 12.2 mph 98 % 0.0 in
04:02 3.1 °F 3.0 °F 1003.9 in West 5.0 mph 12.6 mph 98 % 0.0 in
04:07 3.3 °F 3.0 °F 1003.9 in WSW 5.8 mph 12.6 mph 98 % 0.0 in
04:12 3.4 °F 3.0 °F 1003.9 in WNW 7.9 mph 12.6 mph 98 % 0.0 in
04:17 3.6 °F 4.0 °F 1003.9 in West 7.9 mph 14.0 mph 98 % 0.0 in
04:22 3.7 °F 4.0 °F 1003.9 in WNW 10.1 mph 15.4 mph 98 % 0.0 in
04:27 3.8 °F 4.0 °F 1003.9 in West 8.7 mph 15.4 mph 98 % 0.0 in
04:32 3.9 °F 4.0 °F 1003.9 in WSW 14.0 mph 14.0 mph 98 % 0.0 in
04:37 4.0 °F 4.0 °F 1003.9 in WNW 9.0 mph 14.0 mph 98 % 0.0 in
04:42 4.0 °F 4.0 °F 1003.9 in West 11.6 mph 17.7 mph 98 % 0.0 in
04:47 4.0 °F 4.0 °F 1003.9 in WSW 13.0 mph 17.7 mph 97 % 0.0 in
04:52 3.9 °F 4.0 °F 1003.9 in WSW 12.6 mph 19.1 mph 97 % 0.0 in
04:57 3.9 °F 4.0 °F 1003.9 in West 16.3 mph 19.1 mph 96 % 0.0 in
05:02 3.8 °F 3.0 °F 1003.9 in West 12.2 mph 16.9 mph 95 % 0.0 in
05:07 3.7 °F 3.0 °F 1003.9 in WNW 10.1 mph 16.9 mph 95 % 0.0 in
05:12 3.7 °F 3.0 °F 1003.9 in WNW 11.1 mph 19.5 mph 94 % 0.0 in
05:17 3.7 °F 3.0 °F 1003.9 in WNW 6.1 mph 19.5 mph 94 % 0.0 in
05:22 3.7 °F 3.0 °F 1003.9 in WNW 9.7 mph 19.5 mph 94 % 0.0 in
05:27 3.7 °F 3.0 °F 1003.9 in West 13.7 mph 20.6 mph 94 % 0.0 in
05:32 3.7 °F 3.0 °F 1003.9 in West 12.6 mph 20.6 mph 94 % 0.0 in
05:37 3.8 °F 3.0 °F 1003.9 in West 13.0 mph 16.9 mph 93 % 0.0 in
05:42 3.9 °F 3.0 °F 1003.9 in WSW 13.0 mph 16.9 mph 93 % 0.0 in
05:48 4.0 °F 3.0 °F 1003.9 in WNW 12.6 mph 17.2 mph 93 % 0.0 in
05:53 4.1 °F 3.0 °F 1003.9 in West 12.6 mph 17.7 mph 92 % 0.0 in
05:58 4.1 °F 3.0 °F 1003.9 in WNW 10.1 mph 17.7 mph 92 % 0.0 in
06:03 4.1 °F 3.0 °F 1003.9 in WSW 17.7 mph 20.6 mph 91 % 0.0 in
06:08 4.2 °F 3.0 °F 1003.9 in South 6.1 mph 20.6 mph 91 % 0.0 in
06:13 4.2 °F 3.0 °F 1003.9 in West 4.7 mph 20.1 mph 91 % 0.0 in
06:18 4.2 °F 3.0 °F 1003.9 in West 10.1 mph 14.0 mph 91 % 0.0 in
06:23 4.2 °F 3.0 °F 1003.9 in West 6.4 mph 12.6 mph 92 % 0.3 in
06:28 4.2 °F 3.0 °F 1003.9 in WNW 9.0 mph 17.2 mph 92 % 0.3 in
06:33 4.2 °F 3.0 °F 1003.9 in WNW 11.9 mph 17.2 mph 93 % 0.3 in
06:38 4.2 °F 3.0 °F 1003.9 in West 1.8 mph 17.2 mph 93 % 0.5 in
06:43 4.1 °F 3.0 °F 1003.9 in West 8.7 mph 13.0 mph 94 % 0.5 in
06:48 4.1 °F 3.0 °F 1003.9 in NNW 11.9 mph 12.2 mph 94 % 0.5 in
06:53 4.1 °F 3.0 °F 1003.9 in West 5.5 mph 21.2 mph 95 % 0.5 in
06:58 4.1 °F 4.0 °F 1003.9 in WSW 6.9 mph 21.2 mph 96 % 0.5 in
07:03 4.1 °F 4.0 °F 1003.9 in West 5.8 mph 14.0 mph 96 % 0.5 in
07:08 4.0 °F 4.0 °F 1003.9 in ENE 9.3 mph 10.5 mph 96 % 0.5 in
07:13 4.0 °F 4.0 °F 1005.0 in South 5.8 mph 17.7 mph 97 % 0.5 in
07:18 4.1 °F 4.0 °F 1005.0 in NW 11.9 mph 17.7 mph 97 % 0.8 in
07:24 4.1 °F 4.0 °F 1005.0 in West 13.0 mph 15.1 mph 98 % 1.0 in
07:29 4.1 °F 4.0 °F 1005.0 in WNW 11.1 mph 15.1 mph 98 % 1.3 in
07:34 4.0 °F 4.0 °F 1005.0 in NW 8.7 mph 13.0 mph 98 % 1.3 in
07:39 4.0 °F 4.0 °F 1005.0 in WSW 5.0 mph 11.1 mph 98 % 1.0 in
07:44 4.0 °F 4.0 °F 1005.0 in West 2.1 mph 14.0 mph 98 % 1.0 in
07:49 4.0 °F 4.0 °F 1005.0 in West 9.0 mph 14.0 mph 98 % 1.0 in
07:54 4.0 °F 4.0 °F 1005.0 in West 9.0 mph 14.3 mph 98 % 1.0 in
07:59 4.0 °F 4.0 °F 1005.0 in WSW 8.7 mph 17.2 mph 98 % 1.0 in
08:04 4.1 °F 4.0 °F 1005.0 in SSW 11.1 mph 17.2 mph 98 % 1.0 in
08:09 4.1 °F 4.0 °F 1005.0 in WNW 11.6 mph 17.2 mph 98 % 1.0 in
08:14 4.1 °F 4.0 °F 1005.0 in SSW 10.1 mph 17.2 mph 98 % 0.8 in
08:19 4.1 °F 4.0 °F 1005.0 in West 5.5 mph 16.3 mph 98 % 0.8 in
08:24 4.1 °F 4.0 °F 1005.0 in WSW 15.4 mph 16.3 mph 98 % 0.3 in
08:29 4.1 °F 4.0 °F 1005.0 in West 4.0 mph 17.2 mph 98 % 0.3 in
08:34 4.1 °F 4.0 °F 1005.0 in WSW 19.5 mph 19.5 mph 98 % 0.3 in
08:39 4.2 °F 4.0 °F 1005.0 in West 9.0 mph 19.5 mph 98 % 0.3 in
08:44 4.2 °F 4.0 °F 1005.0 in WSW 9.3 mph 19.5 mph 98 % 0.3 in
08:49 4.3 °F 4.0 °F 1005.0 in WSW 10.1 mph 16.9 mph 98 % 0.3 in
08:54 4.3 °F 4.0 °F 1005.0 in WSW 10.1 mph 17.7 mph 98 % 0.3 in
08:59 4.3 °F 4.0 °F 1005.0 in West 12.2 mph 18.3 mph 98 % 0.3 in
09:04 4.3 °F 4.0 °F 1005.0 in WSW 13.0 mph 18.3 mph 98 % 0.3 in
09:09 4.3 °F 4.0 °F 1005.0 in West 11.9 mph 17.2 mph 98 % 0.3 in
09:14 4.3 °F 4.0 °F 1005.0 in West 9.7 mph 17.2 mph 98 % 0.3 in
09:19 4.3 °F 4.0 °F 1005.0 in WSW 9.0 mph 15.1 mph 98 % 0.3 in
09:24 4.3 °F 4.0 °F 1005.0 in WSW 6.1 mph 13.0 mph 98 % 0.3 in
09:29 4.4 °F 4.0 °F 1005.0 in West 4.0 mph 13.0 mph 98 % 0.0 in
09:34 4.4 °F 4.0 °F 1005.0 in WSW 7.6 mph 12.6 mph 98 % 0.0 in
09:39 4.5 °F 5.0 °F 1005.0 in West 8.7 mph 12.6 mph 98 % 0.0 in
09:45 4.6 °F 5.0 °F 1005.0 in WSW 1.8 mph 13.7 mph 98 % 0.0 in
09:50 4.7 °F 5.0 °F 1005.0 in West 9.3 mph 13.7 mph 98 % 0.0 in
09:55 4.7 °F 5.0 °F 1005.0 in WSW 12.6 mph 13.7 mph 98 % 0.0 in
10:00 4.7 °F 5.0 °F 1005.0 in WSW 10.1 mph 13.7 mph 98 % 0.0 in
10:05 4.8 °F 5.0 °F 1005.0 in West 23.8 mph 23.8 mph 98 % 0.0 in
10:10 5.0 °F 5.0 °F 1005.0 in WSW 6.9 mph 23.8 mph 98 % 0.0 in
10:15 5.2 °F 5.0 °F 1005.0 in West 10.1 mph 16.3 mph 98 % 0.0 in
10:20 5.2 °F 5.0 °F 1005.0 in WSW 12.2 mph 16.9 mph 98 % 0.0 in
10:25 5.3 °F 6.0 °F 1005.0 in NNW 12.2 mph 16.9 mph 98 % 0.0 in
10:30 5.4 °F 6.0 °F 1005.0 in WNW 9.0 mph 16.6 mph 98 % 0.0 in
10:36 5.4 °F 6.0 °F 1005.0 in West 11.1 mph 16.9 mph 98 % 0.0 in
10:41 5.4 °F 6.0 °F 1005.0 in West 10.1 mph 16.9 mph 98 % 0.0 in
10:46 5.3 °F 6.0 °F 1005.0 in WSW 6.1 mph 16.9 mph 98 % 0.0 in
10:51 5.3 °F 6.0 °F 1005.0 in WSW 19.5 mph 19.5 mph 98 % 0.0 in
10:56 5.2 °F 5.0 °F 1005.0 in West 9.7 mph 19.5 mph 98 % 0.0 in
11:01 5.1 °F 5.0 °F 1005.0 in West 17.2 mph 17.7 mph 98 % 0.0 in
11:06 5.0 °F 5.0 °F 1005.0 in SW 4.7 mph 18.3 mph 98 % 0.3 in
11:11 5.0 °F 5.0 °F 1005.0 in WSW 5.8 mph 20.9 mph 98 % 0.5 in
11:16 5.0 °F 5.0 °F 1006.0 in SSW 8.7 mph 20.9 mph 98 % 0.5 in
11:21 5.0 °F 5.0 °F 1006.0 in West 11.6 mph 15.4 mph 98 % 0.5 in
11:26 5.0 °F 5.0 °F 1006.0 in West 15.8 mph 16.9 mph 98 % 0.5 in
11:31 5.0 °F 5.0 °F 1006.0 in WSW 15.4 mph 16.9 mph 98 % 0.5 in
11:36 5.0 °F 5.0 °F 1006.0 in West 16.6 mph 19.1 mph 98 % 0.5 in
11:41 4.9 °F 5.0 °F 1006.0 in WSW 16.9 mph 21.2 mph 98 % 0.8 in
11:46 4.9 °F 5.0 °F 1005.0 in WSW 7.9 mph 21.2 mph 98 % 0.8 in
11:51 4.9 °F 5.0 °F 1005.0 in Calm   18.0 mph 98 % 1.3 in
11:56 4.9 °F 5.0 °F 1005.0 in NNW 8.7 mph 17.2 mph 98 % 1.3 in
12:01 5.0 °F 5.0 °F 1006.0 in NNW 6.4 mph 17.2 mph 98 % 1.5 in
12:06 5.1 °F 5.0 °F 1006.0 in NNW 13.7 mph 16.3 mph 98 % 1.3 in
12:11 5.1 °F 5.0 °F 1006.0 in NW 11.9 mph 16.6 mph 98 % 0.8 in
12:16 5.1 °F 5.0 °F 1006.0 in WNW 5.8 mph 16.6 mph 98 % 1.3 in
12:22 5.1 °F 5.0 °F 1006.0 in NNW 10.5 mph 23.3 mph 98 % 1.3 in
12:27 5.1 °F 5.0 °F 1006.0 in West 13.7 mph 23.3 mph 98 % 1.5 in
12:32 5.0 °F 5.0 °F 1006.0 in WNW 10.8 mph 14.0 mph 98 % 1.8 in
12:37 5.0 °F 5.0 °F 1006.0 in WSW 7.9 mph 19.1 mph 98 % 1.8 in
12:42 5.0 °F 5.0 °F 1006.0 in North 12.6 mph 19.1 mph 98 % 1.8 in
12:47 5.1 °F 5.0 °F 1006.0 in NNW 4.7 mph 15.1 mph 98 % 1.8 in
12:52 5.1 °F 5.0 °F 1006.0 in NNE 11.9 mph 15.4 mph 98 % 1.5 in
12:57 5.3 °F 6.0 °F 1006.0 in West 4.3 mph 15.4 mph 98 % 1.3 in
13:02 5.7 °F 6.0 °F 1005.0 in WSW 5.8 mph 13.7 mph 98 % 1.3 in
13:07 5.7 °F 6.0 °F 1005.0 in WNW 6.1 mph 16.6 mph 98 % 1.3 in
13:12 5.6 °F 6.0 °F 1005.0 in West 4.3 mph 16.6 mph 98 % 1.3 in
13:17 5.6 °F 6.0 °F 1005.0 in NW 9.0 mph 13.7 mph 98 % 0.8 in
13:22 6.0 °F 6.0 °F 1005.0 in WNW 5.5 mph 13.0 mph 98 % 0.8 in
13:27 6.1 °F 6.0 °F 1005.0 in WNW 9.0 mph 13.0 mph 98 % 0.5 in
13:32 6.0 °F 6.0 °F 1006.0 in NNW 11.9 mph 12.6 mph 98 % 0.3 in
13:37 6.0 °F 6.0 °F 1006.0 in NNW 7.9 mph 12.6 mph 98 % 0.3 in
13:42 6.1 °F 6.0 °F 1006.0 in WNW 9.3 mph 12.6 mph 98 % 0.0 in
13:47 6.3 °F 6.0 °F 1005.0 in WSW 15.8 mph 15.8 mph 98 % 0.0 in
13:52 6.6 °F 7.0 °F 1005.0 in West 10.1 mph 16.3 mph 98 % 0.0 in
13:57 6.7 °F 6.0 °F 1005.0 in NNW 17.7 mph 17.7 mph 97 % 0.0 in
14:02 6.9 °F 6.0 °F 1005.0 in NNW 12.6 mph 25.3 mph 95 % 0.0 in
14:07 7.1 °F 6.0 °F 1005.0 in North 5.8 mph 25.3 mph 93 % 0.0 in
14:12 6.7 °F 6.0 °F 1005.0 in North 14.0 mph 21.2 mph 93 % 0.0 in
14:17 5.8 °F 4.0 °F 1005.0 in North 15.4 mph 21.2 mph 87 % 0.3 in
14:22 5.5 °F 4.0 °F 1005.0 in NNW 8.7 mph 20.6 mph 89 % 0.5 in
14:27 5.4 °F 4.0 °F 1005.0 in North 6.4 mph 16.6 mph 91 % 0.5 in
14:32 5.2 °F 4.0 °F 1006.0 in NNW 7.9 mph 16.6 mph 91 % 0.8 in
14:37 5.0 °F 4.0 °F 1006.0 in NNW 10.1 mph 16.6 mph 91 % 1.3 in
14:42 4.0 °F 3.0 °F 1006.0 in NNE 12.6 mph 22.4 mph 89 % 3.0 in
14:48 3.8 °F 3.0 °F 1006.0 in WNW 7.9 mph 22.4 mph 93 % 4.1 in
14:53 3.7 °F 3.0 °F 1006.0 in NW 9.7 mph 19.5 mph 95 % 4.6 in
14:58 3.7 °F 3.0 °F 1006.0 in NNW 11.1 mph 15.8 mph 96 % 5.3 in
15:03 3.8 °F 3.0 °F 1006.0 in NNW 4.0 mph 15.8 mph 97 % 5.3 in
15:09 3.8 °F 4.0 °F 1006.0 in NNW 5.8 mph 11.6 mph 98 % 5.3 in
15:14 3.8 °F 4.0 °F 1007.0 in NNW 6.1 mph 16.6 mph 98 % 5.3 in
15:19 3.9 °F 4.0 °F 1007.0 in WNW 5.5 mph 16.6 mph 98 % 5.3 in
15:24 3.9 °F 4.0 °F 1007.0 in Calm   12.2 mph 98 % 5.3 in
15:29 4.0 °F 4.0 °F 1007.0 in Calm   11.6 mph 98 % 5.3 in
15:34 4.3 °F 4.0 °F 1007.0 in West 6.4 mph 7.2 mph 98 % 5.1 in
15:39 4.4 °F 4.0 °F 1007.0 in NNW 3.5 mph 7.2 mph 98 % 3.8 in
15:44 4.4 °F 4.0 °F 1007.0 in NNW 7.9 mph 9.0 mph 98 % 2.8 in
15:49 4.3 °F 4.0 °F 1007.0 in North 4.7 mph 9.0 mph 98 % 2.5 in
15:54 4.4 °F 4.0 °F 1007.0 in WNW 8.7 mph 10.1 mph 98 % 1.8 in
15:59 4.4 °F 4.0 °F 1007.0 in NNW 5.8 mph 10.1 mph 98 % 1.3 in
16:04 4.5 °F 5.0 °F 1007.0 in NNW 4.0 mph 10.5 mph 98 % 1.5 in
16:09 4.6 °F 5.0 °F 1007.0 in North 2.1 mph 10.5 mph 98 % 1.5 in
16:14 5.0 °F 5.0 °F 1007.0 in Calm   6.9 mph 98 % 1.3 in
16:19 5.4 °F 6.0 °F 1007.0 in NW 6.4 mph 6.9 mph 98 % 0.8 in
16:24 5.1 °F 5.0 °F 1007.0 in NNE 2.6 mph 12.6 mph 98 % 0.8 in
16:29 5.1 °F 5.0 °F 1006.0 in ESE 3.5 mph 13.7 mph 98 % 0.8 in
16:34 5.0 °F 5.0 °F 1006.0 in NE 13.0 mph 14.0 mph 98 % 1.3 in
16:39 5.1 °F 5.0 °F 1006.0 in North 4.3 mph 14.0 mph 98 % 1.3 in
16:44 5.0 °F 5.0 °F 1007.0 in North 9.3 mph 14.0 mph 98 % 1.0 in
16:49 4.9 °F 5.0 °F 1007.0 in North 11.9 mph 12.6 mph 98 % 0.8 in
16:54 4.8 °F 5.0 °F 1007.0 in NNE 3.5 mph 12.6 mph 98 % 0.8 in
16:59 4.8 °F 5.0 °F 1006.0 in NNW 2.1 mph 11.9 mph 98 % 0.8 in
17:04 5.0 °F 5.0 °F 1006.0 in NE 9.0 mph 9.3 mph 98 % 0.3 in
17:09 5.1 °F 5.0 °F 1006.0 in Calm   9.0 mph 98 % 0.3 in
17:14 5.1 °F 5.0 °F 1007.0 in NNE 5.8 mph 10.8 mph 98 % 0.3 in
17:19 5.0 °F 5.0 °F 1007.0 in North 9.7 mph 12.2 mph 98 % 0.3 in
17:24 4.7 °F 5.0 °F 1007.0 in NNE 9.7 mph 20.6 mph 98 % 0.3 in
17:29 4.5 °F 5.0 °F 1007.0 in North 13.0 mph 20.6 mph 98 % 0.8 in
17:34 4.4 °F 4.0 °F 1007.0 in WNW 5.0 mph 13.0 mph 98 % 0.3 in
17:39 4.3 °F 4.0 °F 1007.0 in Calm   12.2 mph 98 % 0.3 in
17:44 4.3 °F 4.0 °F 1007.0 in Calm   6.9 mph 98 % 0.3 in
17:49 4.2 °F 4.0 °F 1007.0 in Calm   4.3 mph 98 % 0.3 in
17:54 4.1 °F 4.0 °F 1007.0 in Calm   5.0 mph 98 % 0.3 in
18:00 4.0 °F 4.0 °F 1007.0 in Calm   6.1 mph 98 % 0.3 in
18:05 3.8 °F 4.0 °F 1007.0 in Calm   6.1 mph 98 % 0.3 in
18:10 3.7 °F 4.0 °F 1007.0 in Calm   3.5 mph 98 % 0.3 in
18:15 3.7 °F 4.0 °F 1008.0 in Calm   1.8 mph 98 % 0.3 in
18:20 3.8 °F 4.0 °F 1008.0 in Calm     98 % 0.3 in
18:25 3.9 °F 4.0 °F 1008.0 in Calm   1.8 mph 98 % 0.3 in
18:30 3.9 °F 4.0 °F 1008.0 in Calm   4.7 mph 98 % 0.0 in
18:35 4.0 °F 4.0 °F 1008.0 in North 7.9 mph 12.2 mph 98 % 0.3 in
18:40 4.1 °F 4.0 °F 1008.0 in NNW 6.1 mph 12.2 mph 98 % 0.3 in
18:45 4.1 °F 4.0 °F 1009.0 in Calm   9.0 mph 98 % 0.3 in
18:50 4.1 °F 4.0 °F 1009.0 in Calm   4.7 mph 98 % 0.5 in
18:55 4.0 °F 4.0 °F 1009.0 in Calm   3.2 mph 98 % 0.5 in
19:00 4.0 °F 4.0 °F 1009.0 in Calm   3.2 mph 98 % 0.5 in
19:05 4.0 °F 4.0 °F 1009.0 in Calm   2.1 mph 98 % 0.5 in
19:10 4.0 °F 4.0 °F 1009.0 in Calm   2.1 mph 98 % 0.5 in
19:16 4.1 °F 4.0 °F 1009.0 in Calm   10.5 mph 98 % 0.5 in
19:21 4.1 °F 4.0 °F 1009.0 in North 4.0 mph 10.5 mph 98 % 0.5 in
19:26 4.1 °F 4.0 °F 1009.0 in Calm   6.4 mph 98 % 0.5 in
19:31 4.1 °F 4.0 °F 1009.0 in NNW 6.1 mph 6.1 mph 98 % 0.5 in
19:36 4.0 °F 4.0 °F 1009.0 in Calm   6.1 mph 98 % 0.3 in
19:41 3.9 °F 4.0 °F 1009.0 in Calm   6.1 mph 98 % 0.3 in
19:46 3.8 °F 4.0 °F 1009.0 in Calm     98 % 0.3 in
19:51 3.7 °F 4.0 °F 1009.0 in Calm     98 % 0.0 in
19:56 3.5 °F 4.0 °F 1009.0 in Calm     98 % 0.0 in
20:01 3.4 °F 3.0 °F 1009.0 in WNW 1.8 mph 1.8 mph 98 % 0.0 in
20:06 3.4 °F 3.0 °F 1009.0 in Calm   5.5 mph 98 % 0.0 in
20:11 3.3 °F 3.0 °F 1009.0 in Calm   5.5 mph 98 % 0.0 in
20:16 3.2 °F 3.0 °F 1008.0 in Calm   5.5 mph 98 % 0.0 in
20:21 3.1 °F 3.0 °F 1008.0 in Calm   5.5 mph 98 % 0.0 in
20:26 3.0 °F 3.0 °F 1008.0 in Calm   4.0 mph 98 % 0.0 in
20:31 2.9 °F 3.0 °F 1009.0 in Calm   4.0 mph 98 % 0.0 in
20:36 2.8 °F 3.0 °F 1009.0 in Calm   4.3 mph 98 % 0.0 in
20:41 2.7 °F 3.0 °F 1009.0 in Calm   4.3 mph 98 % 0.0 in
20:46 2.7 °F 3.0 °F 1009.0 in Calm   4.7 mph 98 % 0.0 in
20:51 2.8 °F 3.0 °F 1009.0 in Calm   7.6 mph 98 % 0.0 in
20:56 2.8 °F 3.0 °F 1009.0 in Calm   7.6 mph 98 % 0.0 in
21:01 2.8 °F 3.0 °F 1009.0 in Calm   5.5 mph 98 % 0.0 in
21:06 2.8 °F 3.0 °F 1009.0 in Calm   5.5 mph 98 % 0.0 in
21:11 2.8 °F 3.0 °F 1009.0 in NNE 1.4 mph 4.7 mph 98 % 0.0 in
21:16 2.8 °F 3.0 °F 1010.0 in Calm   5.0 mph 98 % 0.0 in
21:21 2.8 °F 3.0 °F 1010.0 in Calm   5.0 mph 98 % 0.0 in
21:26 3.0 °F 3.0 °F 1010.0 in NNW 3.2 mph 7.6 mph 98 % 0.0 in
21:31 3.0 °F 3.0 °F 1010.0 in Calm   7.6 mph 98 % 0.0 in
21:36 3.0 °F 3.0 °F 1010.0 in Calm   6.4 mph 98 % 0.0 in
21:41 2.9 °F 3.0 °F 1010.0 in Calm   5.5 mph 98 % 0.0 in
21:46 2.7 °F 3.0 °F 1010.0 in Calm     98 % 0.0 in
21:52 2.4 °F 3.0 °F 1010.0 in Calm     98 % 0.0 in
21:57 2.3 °F 3.0 °F 1010.0 in Calm     98 % 0.0 in
22:02 2.3 °F 3.0 °F 1010.0 in Calm   3.2 mph 98 % 0.0 in
22:07 2.5 °F 3.0 °F 1010.0 in Calm   3.2 mph 98 % 0.0 in
22:12 2.6 °F 3.0 °F 1010.0 in Calm     98 % 0.0 in
22:17 2.4 °F 3.0 °F 1009.0 in Calm     98 % 0.0 in
22:22 2.4 °F 3.0 °F 1009.0 in Calm     98 % 0.0 in
22:27 2.4 °F 3.0 °F 1009.0 in Calm   4.0 mph 98 % 0.0 in
22:32 2.5 °F 3.0 °F 1009.0 in Calm   4.0 mph 98 % 0.0 in
22:37 2.4 °F 3.0 °F 1009.0 in Calm     98 % 0.0 in
22:42 2.3 °F 3.0 °F 1009.0 in Calm     98 % 0.0 in
22:47 2.1 °F 2.0 °F 1009.0 in Calm     98 % 0.0 in
22:52 2.1 °F 2.0 °F 1009.0 in Calm     98 % 0.0 in
22:57 2.0 °F 2.0 °F 1009.0 in Calm     98 % 0.0 in
23:02 2.0 °F 2.0 °F 1009.0 in Calm     98 % 0.0 in
23:07 2.0 °F 2.0 °F 1009.0 in Calm     98 % 0.0 in
23:12 2.0 °F 2.0 °F 1009.0 in Calm     98 % 0.0 in
23:17 2.0 °F 2.0 °F 1009.0 in Calm     98 % 0.0 in
23:22 2.0 °F 2.0 °F 1009.0 in Calm     98 % 0.0 in
23:27 2.1 °F 2.0 °F 1009.0 in Calm   4.0 mph 98 % 0.0 in
23:32 2.1 °F 2.0 °F 1009.0 in Calm   4.0 mph 98 % 0.0 in
23:37 2.1 °F 2.0 °F 1009.0 in Calm     98 % 0.0 in
23:42 2.0 °F 2.0 °F 1009.0 in Calm     98 % 0.0 in
23:48 1.9 °F 2.0 °F 1009.0 in Calm     98 % 0.0 in
23:53 1.8 °F 2.0 °F 1009.0 in Calm     98 % 0.0 in
23:58 1.8 °F 2.0 °F 1009.0 in Calm     98 % 0.0 in
Le Gheer Warneton
Courtoisie de Weather Underground - 2.25 mb

Mise a jour : 25/02/2018 18:20:12
Généré par Cumulus 1.9.4 (1099)